Wetbulb
50.07 48.14 45.04 48.54 48.68 48.67 47.27 45.45 45.62 48.12 51.43 49.25 47.85 49.48 52.02 54.53 54.28 55.69 56.88 57.09 56.57 56.47 59.63 63.98 65.06 64.28 63.50 62.64 62.01 61.84 61.50 61.25 61.32 61.19 61.39 62.32 61.74 61.54 61.50 61.48 61.67 62.40 61.78 61.94
47.84 44.85 50.69 51.14 51.09 49.04 47.75 46.51 46.09 49.44 52.25 49.83 48.99 49.06 52.30 54.09 53.15 53.35 53.81 54.71 55.28 55.56 60.95 62.76 64.09 63.07 62.34 62.04 61.79 61.98 61.76 61.26 61.29 62.04 61.87 62.71 61.71 61.87 61.35 61.44 59.16 58.88 59.02 59.37
45.13 48.66 52.87 51.90 49.52 47.22 46.78 45.94 47.88 46.67 49.53 50.20 49.04 46.46 49.18 53.39 55.16 54.91 55.80 56.53 55.71 55.77 59.06 61.14 62.38 61.39 62.24 61.80 61.71 60.16 60.70 61.75 62.12 61.79 61.01 60.32 59.98 59.51 58.76 57.62 57.93 58.00 58.22 57.88
47.09 49.07 50.80 49.21 48.28 48.46 43.38 49.99 48.99 47.87 44.28 40.79 46.99 38.55 44.11 48.99 50.95 53.53 57.49 57.10 55.71 56.40 61.24 61.20 60.68 61.86 61.17 61.01 61.06 60.72 61.07 61.45 60.23 60.05 59.36 57.59 56.63 54.77 55.28 56.45 56.81 56.70 57.32 57.63
47.74 48.23 48.32 46.88 49.01 50.23 47.10 50.72 48.39 47.06 42.54 40.86 42.52 39.36 42.00 47.96 47.62 50.11 56.00 57.15 55.74 56.86 60.08 61.00 60.73 62.03 62.23 61.41 60.37 59.29 58.49 58.49 58.72 58.34 57.83 56.73 55.08 55.24 56.40 56.12 55.32 55.24 55.52 56.41
48.71 50.13 50.68 50.09 51.48 50.38 50.80 47.53 44.45 40.92 39.03 35.69 39.73 40.15 39.21 44.42 47.54 51.85 55.49 56.71 57.78 59.16 60.03 60.91 61.75 62.08 61.63 59.88 58.38 57.34 56.44 56.98 57.87 57.08 56.76 56.34 56.33 55.28 54.98 53.31 52.33 52.40 53.37 54.01
44.93 46.02 48.38 51.45 47.25 48.76 46.65 41.18 35.86 34.66 34.32 34.73 41.29 39.32 41.80 46.92 50.77 51.25 54.51 56.18 57.66 59.44 59.50 60.12 60.12 60.06 58.07 57.23 57.02 57.49 58.52 58.05 56.67 56.74 56.61 56.44 55.62 54.49 52.61 52.36 52.13 51.24 50.86 50.77
40.27 40.75 47.93 51.33 47.51 44.84 43.02 41.52 36.84 31.22 31.56 34.96 42.03 38.65 42.97 50.19 52.87 54.22 56.83 57.03 57.73 58.84 58.83 59.21 59.26 57.80 57.50 57.67 57.85 58.40 58.16 56.97 56.17 56.37 53.50 54.53 54.18 53.22 52.47 52.23 50.95 50.71 49.68 49.46
40.87 42.99 52.19 52.66 51.93 49.57 45.38 41.54 42.81 39.14 39.11 36.72 39.60 42.93 47.49 51.57 52.54 54.14 54.99 56.21 57.83 58.70 58.04 57.40 57.30 57.32 57.78 58.04 57.98 57.96 55.38 52.99 52.95 53.50 53.04 52.75 52.14 51.36 49.93 49.42 49.77 49.28 49.37 49.10
46.31 42.33 50.26 52.50 53.25 51.04 46.76 48.63 40.86 39.50 33.27 32.04 36.96 40.09 41.17 47.06 48.92 52.22 53.41 54.47 56.47 56.52 56.44 56.52 56.26 56.00 57.28 56.59 55.66 53.44 52.07 50.90 52.58 52.58 51.30 50.83 50.18 49.56 49.00 48.89 48.90 48.61 48.28 47.97
48.13 45.10 45.76 49.46 46.51 45.32 45.23 42.70 42.13 41.20 38.37 34.99 32.50 37.19 46.18 47.01 49.54 51.16 52.91 53.66 54.50 54.98 55.06 54.19 53.55 54.22 55.80 54.41 52.37 52.01 51.79 51.46 50.74 50.05 49.58 48.83 48.34 48.55 48.71 48.47 48.44 48.33 47.84 48.27
49.69 44.98 41.62 45.21 49.08 50.48 47.27 44.59 43.64 38.92 36.69 38.84 37.18 37.62 47.71 48.63 50.45 51.34 52.34 53.50 53.98 54.47 54.55 53.65 53.50 53.03 52.16 51.89 51.20 50.82 50.17 50.01 49.90 49.56 48.79 48.07 47.77 47.84 46.85 46.86 48.55 48.33 47.87 47.66
49.53 43.33 38.41 40.73 44.04 47.30 45.84 46.97 44.79 42.49 40.93 38.06 37.09 38.62 50.14 50.32 49.59 52.00 51.83 52.96 54.32 54.38 53.55 53.24 52.69 52.13 51.99 51.43 51.55 49.68 48.71 48.74 49.19 48.91 48.55 47.81 47.07 46.23 46.27 46.91 48.55 48.32 47.45 48.00
52.24 43.73 42.22 40.24 41.98 44.75 44.54 46.87 46.55 43.28 38.20 39.36 39.86 42.52 47.14 49.58 49.53 50.20 52.99 53.33 53.82 54.12 53.69 53.00 52.43 51.52 50.35 50.83 50.61 49.38 48.23 48.25 48.46 47.93 46.92 46.26 46.25 46.70 46.78 48.16 47.91 47.83 48.01 47.58
47.66 42.21 44.02 46.20 48.08 48.76 48.02 48.17 48.33 43.94 44.08 41.89 44.18 43.20 47.20 48.14 50.03 49.10 52.81 53.03 53.38 53.44 53.26 52.79 51.85 49.91 48.09 48.12 48.42 48.71 48.11 48.28 47.86 47.24 46.93 46.53 47.17 47.30 48.30 47.95 48.03 47.98 47.66 47.83
48.30 42.71 47.73 46.74 48.79 47.25 45.35 47.53 49.36 49.31 48.33 46.31 47.07 46.26 49.60 50.93 49.88 47.79 50.63 50.49 51.93 52.75 52.66 51.88 50.24 49.30 48.30 48.00 47.82 48.32 48.10 47.93 47.95 47.16 46.78 47.42 48.32 48.74 48.24 47.81 48.08 47.69 47.42 47.16
45.94 44.39 42.08 38.76 45.65 45.58 42.17 46.97 48.75 49.00 49.36 47.71 44.21 46.56 49.69 46.37 46.91 46.96 48.32 48.38 49.94 51.56 50.79 49.03 48.79 48.35 48.19 47.98 48.76 47.87 48.06 48.09 47.53 47.12 47.56 48.37 49.22 48.78 48.31 48.26 47.74 47.37 47.12 46.78
45.13 43.48 41.97 39.87 42.11 34.07 45.49 52.99 52.53 50.59 49.79 48.81 50.78 49.52 48.19 47.48 47.02 47.19 47.14 48.49 49.06 47.71 47.96 48.56 48.35 48.24 48.69 48.46 47.84 48.27 47.86 47.58 47.50 47.60 47.89 48.65 49.28 48.52 48.20 48.03 47.52 47.13 46.71 46.61
48.41 44.50 40.93 37.23 39.52 44.63 48.63 51.34 51.06 49.24 47.55 50.19 49.97 47.71 47.80 47.86 47.97 48.76 50.07 49.70 47.61 47.90 48.45 48.29 49.14 49.04 48.38 47.91 48.35 47.89 47.76 47.32 47.22 47.77 48.11 48.83 49.41 48.74 48.23 47.83 47.87 47.60 46.29 46.50
49.29 47.28 43.41 40.99 39.53 36.70 45.34 53.36 55.57 54.15 42.71 51.13 49.96 48.15 48.43 48.89 44.45 47.94 50.17 50.28 49.59 49.68 49.35 49.27 49.17 48.56 47.75 48.39 47.87 47.27 47.50 47.21 47.15 48.43 49.12 49.82 49.79 49.11 48.47 48.61 48.05 47.94 46.57 46.78
41.53 41.03 39.96 38.32 41.67 42.73 50.95 54.55 55.69 42.32 43.88 51.96 51.66 51.37 50.66 48.29 48.23 48.84 49.95 49.72 50.49 49.50 49.51 49.91 48.69 48.19 48.51 49.53 47.74 46.97 47.58 47.60 49.94 50.97 50.57 50.01 50.20 49.52 49.39 49.28 48.22 47.84 47.45 46.54
40.95 39.00 37.41 39.48 38.80 36.32 52.47 52.75 47.09 49.64 50.71 52.22 49.44 48.73 48.43 48.43 49.62 49.38 49.12 48.84 49.06 49.20 49.58 49.72 47.97 47.91 49.13 49.59 48.68 47.96 47.17 50.14 51.38 51.32 50.07 49.79 50.23 49.58 50.14 48.49 49.07 48.05 47.04 46.02
40.58 44.12 41.41 42.56 42.59 48.35 51.33 51.26 52.66 51.43 47.42 49.42 48.90 49.21 49.54 48.94 48.65 49.10 48.21 48.23 48.34 48.62 48.38 50.23 50.07 50.18 50.09 50.13 49.47 48.40 49.76 51.04 51.04 50.12 49.97 48.90 50.45 49.79 48.63 48.67 48.39 47.67 47.42 45.66
46.25 48.81 45.32 45.31 48.44 51.96 52.21 49.62 48.51 48.57 48.31 48.86 49.05 49.40 49.10 47.39 47.32 47.16 46.94 47.70 47.72 47.99 48.39 49.95 50.88 50.57 50.67 51.98 51.65 49.92 49.96 52.35 52.03 50.44 49.70 50.03 49.97 49.55 49.50 47.80 48.17 48.08 47.73 46.78
48.01 48.51 46.31 46.36 49.56 50.03 49.50 49.90 50.04 50.46 51.01 50.51 51.49 51.12 50.11 49.31 48.67 49.46 50.15 50.20 50.56 49.82 49.00 48.55 48.28 47.31 46.57 44.93 41.76 41.40 41.43 45.46 45.33 49.15 50.06 49.82 49.37 49.63 49.69 48.76 48.39 47.43 48.96 48.19
49.34 47.49 45.15 44.16 48.90 46.64 48.21 51.60 52.05 51.11 50.48 51.11 51.07 50.91 51.29 50.58 50.01 50.59 49.07 46.86 45.31 44.35 45.19 44.65 44.64 41.66 40.13 40.87 39.34 38.43 38.76 38.99 38.63 41.16 43.99 46.14 47.97 49.62 49.50 49.04 48.67 44.52 43.84 43.02
MSLP
1010.76 1011.40 1011.90 1011.66 1011.67 1011.65 1011.80 1011.79 1011.50 1010.98 1010.81 1011.14 1011.77 1012.01 1012.43 1013.07 1013.43 1014.09 1014.15 1014.12 1014.14 1014.26 1014.43 1014.45 1014.61 1014.81 1015.00 1015.05 1015.19 1015.57 1015.79 1016.22 1016.53 1017.12 1017.65 1017.75 1017.67 1017.83 1017.96 1018.53 1018.67 1018.34 1017.90 1017.50
1011.34 1011.39 1010.97 1011.27 1011.32 1011.40 1011.49 1011.40 1011.08 1010.66 1010.92 1011.07 1012.11 1012.43 1012.51 1013.03 1013.38 1013.63 1013.93 1013.97 1014.16 1014.51 1014.52 1014.68 1014.80 1015.01 1015.23 1015.36 1015.62 1016.03 1016.26 1016.47 1016.70 1016.99 1017.38 1017.54 1017.88 1018.16 1018.70 1018.55 1018.37 1018.28 1018.04 1017.67
1011.39 1010.71 1010.59 1011.08 1011.00 1011.04 1010.76 1010.81 1010.53 1011.10 1011.40 1011.87 1012.39 1012.99 1012.68 1012.73 1012.91 1013.24 1013.63 1013.56 1013.68 1014.15 1014.71 1015.06 1015.17 1015.23 1015.43 1015.66 1016.02 1016.29 1016.44 1016.58 1016.93 1017.24 1017.59 1017.92 1018.06 1018.28 1018.44 1018.42 1018.47 1018.27 1018.13 1017.86
1010.96 1010.29 1010.39 1010.70 1010.79 1010.43 1010.52 1009.88 1010.34 1010.84 1011.83 1012.70 1012.91 1013.74 1013.16 1012.95 1013.05 1013.35 1013.46 1013.73 1013.84 1014.13 1014.61 1015.22 1015.55 1015.55 1015.72 1016.06 1016.25 1016.41 1016.71 1016.97 1017.18 1017.52 1017.92 1018.22 1018.44 1018.67 1018.75 1018.81 1018.54 1018.42 1018.13 1017.71
1009.78 1009.91 1010.10 1010.52 1009.81 1009.76 1009.78 1009.95 1010.68 1011.22 1012.26 1013.04 1013.74 1014.24 1013.14 1013.41 1013.52 1013.62 1013.82 1013.99 1014.20 1014.52 1014.93 1015.21 1015.70 1015.80 1016.03 1016.32 1016.48 1016.65 1016.88 1016.96 1017.35 1017.76 1018.03 1018.32 1018.57 1018.77 1018.75 1018.73 1018.66 1018.38 1018.11 1017.94
1009.47 1009.30 1009.41 1008.90 1008.72 1009.28 1009.53 1010.38 1011.47 1012.70 1013.59 1014.07 1013.54 1014.03 1013.85 1013.46 1012.93 1013.48 1014.12 1014.39 1014.56 1015.02 1015.35 1015.53 1015.93 1016.10 1016.42 1016.66 1016.80 1016.88 1017.09 1017.31 1017.56 1017.92 1018.15 1018.24 1018.43 1018.67 1018.78 1018.83 1018.70 1018.56 1018.44 1018.27
1009.79 1009.14 1008.61 1008.54 1008.96 1009.31 1010.05 1011.42 1012.83 1013.97 1014.76 1014.82 1014.48 1014.71 1013.48 1012.68 1012.59 1012.95 1013.89 1014.46 1014.91 1015.30 1015.74 1015.97 1016.21 1016.41 1016.60 1016.92 1017.14 1017.27 1017.40 1017.51 1017.61 1017.96 1018.15 1018.27 1018.50 1018.69 1018.70 1018.78 1018.78 1018.93 1018.81 1018.63
1010.51 1009.52 1008.73 1008.57 1008.84 1009.52 1010.66 1012.01 1013.47 1014.44 1015.70 1015.58 1015.10 1014.58 1013.04 1012.86 1013.03 1013.16 1013.78 1014.61 1015.24 1015.67 1015.90 1016.12 1016.36 1016.75 1016.93 1017.15 1017.34 1017.53 1017.67 1017.71 1017.91 1018.05 1018.21 1018.37 1018.44 1018.57 1018.65 1018.77 1018.95 1018.99 1019.02 1018.85
1010.80 1009.98 1009.00 1008.89 1009.10 1009.94 1011.21 1012.53 1013.50 1014.80 1016.03 1016.16 1015.26 1014.36 1013.64 1013.59 1013.76 1014.03 1014.45 1015.07 1015.46 1015.92 1016.04 1016.19 1016.61 1016.90 1017.07 1017.21 1017.36 1017.49 1017.65 1017.91 1018.19 1018.37 1018.57 1018.62 1018.64 1018.61 1018.75 1018.79 1018.96 1018.92 1018.72 1018.82
1010.96 1010.85 1009.85 1009.59 1009.69 1010.61 1011.27 1012.47 1013.91 1015.24 1016.22 1016.41 1015.65 1015.06 1014.33 1013.99 1014.02 1014.37 1014.81 1015.15 1015.49 1016.05 1016.18 1016.32 1016.62 1016.92 1017.01 1017.33 1017.54 1017.56 1017.61 1017.89 1018.23 1018.51 1018.74 1018.78 1018.76 1018.84 1018.84 1018.91 1018.79 1018.83 1018.77 1018.64
1011.60 1011.92 1011.26 1010.84 1010.82 1011.19 1012.17 1013.06 1014.38 1015.43 1016.04 1016.11 1015.88 1014.89 1013.08 1012.98 1013.17 1013.80 1014.53 1015.01 1015.53 1015.94 1016.08 1016.36 1016.79 1017.08 1017.29 1017.57 1017.66 1017.71 1017.85 1018.07 1018.26 1018.49 1018.74 1018.93 1018.99 1019.01 1018.86 1018.77 1018.66 1018.69 1018.54 1018.39
1012.28 1012.62 1012.53 1011.76 1011.32 1011.42 1012.00 1012.82 1013.81 1015.34 1015.95 1016.02 1015.62 1013.96 1012.76 1012.64 1012.99 1013.63 1014.28 1014.86 1015.47 1015.73 1016.01 1016.42 1016.79 1017.05 1017.31 1017.46 1017.59 1017.92 1017.88 1018.07 1018.27 1018.33 1018.62 1018.85 1018.98 1018.97 1018.68 1018.59 1018.31 1018.31 1018.25 1018.06
1012.48 1013.00 1013.20 1012.52 1012.33 1012.23 1012.34 1012.54 1013.21 1014.33 1014.94 1015.28 1015.33 1013.50 1012.59 1012.57 1013.16 1013.58 1014.12 1014.78 1015.19 1015.56 1015.95 1016.39 1016.81 1016.92 1017.03 1017.29 1017.48 1017.71 1018.02 1017.97 1018.06 1018.18 1018.44 1018.71 1018.82 1018.77 1018.39 1018.20 1017.98 1018.03 1017.91 1017.66
1013.08 1013.83 1013.77 1013.34 1012.83 1012.62 1012.68 1012.79 1013.21 1013.84 1014.54 1014.33 1013.91 1012.99 1012.45 1012.65 1012.91 1013.54 1014.12 1014.48 1014.84 1015.42 1015.84 1016.15 1016.58 1016.63 1016.83 1017.10 1017.30 1017.53 1017.78 1017.86 1017.93 1018.11 1018.30 1018.42 1018.47 1018.25 1017.90 1017.81 1017.70 1017.68 1017.51 1017.37
1014.03 1014.54 1014.26 1013.63 1013.11 1012.90 1012.81 1012.72 1012.84 1013.25 1013.00 1013.33 1012.73 1012.72 1011.77 1011.74 1012.00 1012.66 1013.21 1014.06 1014.72 1015.20 1015.57 1015.77 1015.99 1016.29 1016.65 1017.02 1017.18 1017.33 1017.53 1017.52 1017.61 1017.93 1018.00 1017.89 1017.80 1017.70 1017.52 1017.48 1017.45 1017.32 1017.11 1016.89
1014.83 1014.99 1014.82 1014.06 1013.17 1012.98 1012.81 1012.58 1012.55 1012.31 1012.27 1012.44 1012.08 1011.89 1011.42 1011.21 1011.57 1012.30 1012.88 1013.47 1014.12 1014.47 1014.76 1015.27 1015.84 1016.34 1016.56 1016.73 1016.90 1017.13 1017.13 1017.14 1017.38 1017.50 1017.52 1017.47 1017.33 1017.24 1017.26 1017.13 1017.14 1017.02 1016.69 1016.46
1015.39 1015.57 1015.53 1014.84 1013.99 1013.42 1013.18 1012.97 1012.74 1012.46 1012.10 1012.01 1011.93 1011.57 1011.34 1011.55 1011.96 1012.38 1012.84 1013.36 1013.56 1013.68 1014.38 1015.14 1015.58 1015.84 1016.01 1016.24 1016.41 1016.80 1016.66 1016.74 1016.97 1016.97 1016.93 1016.88 1016.86 1016.87 1016.78 1016.69 1016.67 1016.57 1016.39 1016.16
1015.72 1016.12 1016.18 1015.77 1014.65 1014.10 1013.53 1012.97 1012.85 1012.88 1012.69 1012.25 1011.79 1011.74 1011.73 1011.71 1012.35 1012.61 1012.76 1013.17 1013.77 1014.17 1014.44 1014.83 1015.11 1015.41 1015.68 1015.84 1016.22 1016.21 1016.39 1016.45 1016.57 1016.59 1016.50 1016.30 1016.24 1016.31 1016.19 1016.32 1016.13 1015.97 1015.97 1015.78
1015.88 1016.43 1016.72 1016.50 1015.63 1014.72 1013.64 1013.26 1013.23 1013.24 1013.04 1012.62 1012.46 1012.63 1012.58 1012.21 1012.07 1012.51 1012.39 1012.70 1013.26 1013.67 1013.92 1014.14 1014.59 1015.02 1015.35 1015.64 1015.54 1015.75 1015.90 1016.03 1016.12 1015.91 1015.77 1015.56 1015.52 1015.61 1015.63 1015.72 1015.52 1015.37 1015.50 1015.33
1016.27 1016.51 1016.82 1016.71 1016.19 1015.27 1013.96 1013.46 1013.11 1013.43 1013.63 1013.10 1012.60 1012.60 1012.16 1011.98 1012.64 1012.70 1012.64 1012.80 1013.40 1013.54 1013.84 1014.08 1014.41 1014.78 1014.99 1014.59 1014.76 1015.28 1015.22 1015.38 1015.28 1014.85 1014.67 1014.58 1014.70 1014.83 1014.89 1014.82 1014.85 1014.83 1014.89 1014.80
1016.68 1017.13 1017.17 1016.99 1016.29 1015.27 1014.19 1013.49 1013.34 1013.53 1013.95 1012.83 1012.65 1012.16 1012.38 1012.74 1013.18 1013.08 1013.05 1013.26 1013.59 1013.90 1013.93 1014.05 1014.39 1014.56 1014.27 1013.95 1014.52 1014.88 1014.74 1014.54 1013.49 1013.65 1013.72 1013.80 1013.75 1013.92 1013.93 1014.06 1014.23 1014.15 1014.26 1014.33
1016.95 1017.22 1017.22 1017.09 1016.43 1015.39 1014.50 1013.97 1013.96 1013.94 1013.09 1012.89 1012.82 1012.81 1012.89 1013.05 1013.11 1013.26 1013.43 1013.66 1013.77 1013.87 1013.87 1014.11 1014.83 1015.01 1014.65 1015.07 1015.23 1015.05 1014.86 1014.28 1014.05 1013.97 1013.93 1013.62 1013.27 1013.05 1012.97 1013.37 1013.28 1013.46 1013.60 1013.74
1016.88 1016.80 1016.89 1016.90 1015.99 1015.04 1014.48 1014.22 1013.82 1013.59 1013.40 1013.15 1013.19 1013.13 1013.34 1013.70 1014.04 1014.12 1014.19 1014.38 1014.44 1014.52 1014.96 1014.91 1014.82 1014.77 1014.99 1015.21 1015.02 1014.96 1014.86 1014.37 1013.59 1013.06 1013.20 1013.05 1012.36 1012.01 1012.21 1012.56 1012.52 1012.67 1012.73 1013.05
1016.27 1016.33 1016.56 1016.33 1015.67 1015.21 1014.35 1014.08 1013.85 1013.80 1013.74 1013.89 1013.69 1013.96 1014.13 1014.70 1014.95 1014.99 1015.01 1015.01 1015.11 1015.26 1015.50 1015.47 1015.61 1015.89 1016.45 1016.53 1016.41 1016.59 1015.75 1015.13 1014.18 1013.35 1013.35 1012.85 1012.34 1011.89 1011.72 1011.79 1011.71 1012.11 1012.02 1012.01
1016.11 1016.05 1016.11 1016.04 1015.56 1015.30 1014.71 1014.73 1014.60 1014.46 1014.65 1014.85 1015.11 1015.30 1015.55 1015.61 1015.97 1016.26 1016.35 1016.62 1016.98 1017.11 1017.16 1017.16 1017.19 1017.46 1017.67 1017.73 1018.07 1017.75 1017.28 1016.39 1015.32 1014.56 1014.31 1013.41 1012.47 1012.18 1011.69 1011.40 1011.20 1010.95 1010.68 1011.07
1015.66 1015.68 1015.73 1015.75 1015.46 1015.46 1015.45 1015.31 1015.14 1015.39 1016.04 1016.21 1016.17 1016.63 1016.93 1017.08 1017.27 1017.51 1018.03 1018.58 1018.71 1018.84 1018.79 1018.69 1018.88 1019.17 1019.39 1019.18 1019.17 1018.78 1018.34 1017.82 1016.99 1016.09 1015.10 1014.52 1013.59 1012.73 1012.32 1011.61 1010.97 1010.72 1010.22 1009.82
Wind_Speed
3 5 3 9 6 4 3 3 5 4 4 4 2 3 4 3 2 0 5 6 6 6 1 1 3 4 3 4 3 4 7 5 4 3 3 2 1 1 2 3 5 5 5 6
6 3 8 2 4 5 5 6 7 4 1 5 2 5 3 4 4 6 7 6 5 3 4 4 3 3 3 2 2 6 6 5 3 3 2 2 1 2 1 3 2 3 5 4
5 8 4 4 6 4 5 5 4 6 1 2 5 6 4 1 1 1 1 4 3 1 5 3 3 3 1 2 3 5 5 4 3 4 3 2 2 1 0 2 2 3 5 4
6 2 7 6 7 5 5 5 5 4 3 3 2 5 5 4 5 4 6 5 4 4 5 4 2 3 3 2 4 5 5 4 4 5 3 3 2 0 0 2 2 3 4 5
14 5 6 6 13 5 13 4 3 3 4 5 2 4 8 2 5 4 4 4 3 2 3 5 3 3 2 1 2 4 5 6 5 4 3 2 1 1 1 2 4 4 4 5
10 1 8 10 8 6 3 1 6 5 3 0 5 7 6 6 9 4 1 2 4 4 3 5 4 4 3 2 3 4 5 2 2 2 2 3 2 4 3 2 3 3 3 4
5 5 4 4 1 1 5 6 4 5 4 7 2 3 10 5 4 8 9 6 5 6 5 4 4 4 3 3 3 3 2 1 2 2 1 1 0 4 4 2 1 4 3 3
2 8 1 1 2 4 3 7 6 7 5 6 2 5 7 1 3 4 8 7 6 6 6 7 7 4 5 5 5 4 4 3 3 2 1 2 4 3 2 1 1 3 2 3
4 5 3 4 2 2 0 3 3 5 2 2 3 6 3 2 2 5 8 10 9 10 10 7 6 6 6 6 6 6 6 3 2 3 3 4 4 3 2 3 2 3 4 4
2 3 1 1 2 5 3 4 2 3 2 4 4 4 7 5 7 5 6 8 9 6 6 6 6 6 4 4 4 4 4 5 5 5 4 3 3 3 3 3 5 5 5 4
2 3 6 1 3 5 1 1 5 4 4 4 1 7 6 9 11 13 9 8 9 8 7 7 6 5 4 4 3 3 4 6 6 5 3 3 4 5 4 4 5 5 4 5
2 5 4 9 1 2 2 5 5 5 4 1 3 9 3 6 9 9 10 8 6 6 7 6 6 6 6 6 4 5 5 6 6 5 4 5 5 5 5 5 5 3 5 5
4 2 2 10 6 3 4 5 5 4 3 6 5 8 2 4 5 7 9 8 8 7 5 6 5 6 6 6 5 6 5 6 6 5 4 5 6 6 6 6 4 4 5 5
3 1 7 8 8 1 3 1 3 4 3 4 7 6 5 6 7 6 7 7 8 7 7 6 6 7 6 6 6 7 6 6 5 5 5 5 7 7 6 5 5 5 4 5
4 3 1 6 7 4 5 10 6 8 6 5 6 7 9 8 11 10 9 6 7 8 8 9 8 6 5 5 6 5 6 6 5 6 5 7 7 6 6 5 5 6 5 5
2 3 4 4 4 2 5 7 7 10 8 7 7 8 5 2 4 7 10 10 10 9 10 8 6 5 6 7 6 6 7 7 5 6 7 6 6 5 6 6 6 6 6 6
2 1 3 5 5 6 5 4 4 5 6 5 2 3 3 3 3 1 2 6 10 10 5 4 6 8 7 8 7 8 9 5 6 7 7 7 6 6 7 6 5 6 7 5
2 2 1 3 7 2 5 3 3 2 3 12 5 6 2 4 6 5 3 3 2 3 5 6 6 6 8 4 6 7 6 6 6 7 8 7 6 7 6 6 7 6 4 6
3 3 2 2 2 4 5 5 5 4 5 10 4 8 6 4 6 3 0 3 5 7 8 7 7 6 4 7 8 7 6 6 6 10 10 9 6 7 7 8 9 6 4 5
3 3 4 2 2 2 5 1 2 0 7 10 9 3 2 4 6 5 3 4 4 5 3 6 7 4 6 9 7 6 9 6 9 11 11 9 6 7 8 10 9 5 4 6
4 3 3 1 1 5 5 3 2 4 6 4 5 2 6 4 3 3 1 3 1 4 7 5 5 7 10 8 5 8 6 10 14 9 8 7 7 8 9 8 6 5 6 5
3 1 2 2 0 1 4 4 4 4 4 1 1 1 2 2 2 3 5 6 6 8 6 5 4 7 9 6 1 7 7 10 6 6 9 10 10 7 6 8 9 7 5 6
1 5 3 6 5 3 4 5 4 4 3 1 1 1 1 1 4 6 6 7 7 7 6 2 2 6 8 6 3 5 9 9 8 5 11 11 11 8 8 8 9 6 5 6
2 4 2 4 2 4 4 4 4 4 5 5 6 4 3 4 7 7 7 6 6 6 8 9 10 14 13 12 14 14 15 13 13 12 12 10 8 9 7 5 6 6 6 7
3 4 3 3 1 3 6 5 4 8 10 10 11 13 12 11 13 11 12 13 12 13 14 14 13 14 14 15 15 16 17 17 14 12 10 11 8 8 8 6 6 6 10 10
4 4 3 4 4 3 2 5 6 13 10 10 10 12 14 13 11 13 14 14 14 14 14 14 15 14 13 13 13 14 14 15 14 13 11 11 11 10 8 7 9 10 17 15
Wind_Direction
5 73 221 219 192 209 209 225 223 249 288 78 326 198 153 136 281 224 240 252 255 244 119 48 104 147 176 216 177 116 116 113 113 109 139 148 131 318 21 31 282 288 282 265
22 226 234 214 227 215 222 261 273 271 148 132 125 270 272 172 180 192 221 244 241 124 68 56 98 146 182 189 127 91 101 112 112 108 105 101 97 73 51 263 12 3 340 317
170 232 129 176 273 270 222 204 242 216 130 59 119 307 292 326 237 215 220 261 269 318 97 102 169 176 174 165 66 94 59 63 95 103 81 57 45 38 328 21 318 347 1 9
230 248 206 199 251 211 284 213 231 227 108 239 138 262 281 227 298 11 339 5 261 247 104 133 155 164 160 83 87 89 82 86 83 94 89 90 129 227 204 266 320 347 5 20
242 224 190 189 226 163 241 138 244 209 186 114 219 109 265 86 248 262 282 352 51 122 131 140 164 115 86 107 111 85 80 67 65 90 120 132 93 201 235 8 1 359 356 1
250 251 165 218 250 185 263 120 51 53 97 136 217 149 268 190 196 189 185 50 107 110 114 109 101 115 146 102 73 75 89 81 69 101 141 169 59 349 2 12 16 353 344 334
313 243 261 178 235 69 83 63 315 333 343 235 88 83 240 236 195 164 170 169 125 127 143 132 152 160 159 132 136 146 129 266 62 157 159 105 90 131 125 115 359 323 330 321
225 331 320 169 198 191 169 154 175 230 233 268 79 236 257 206 20 57 129 132 143 172 165 180 187 181 177 182 199 207 187 147 160 151 179 140 148 155 121 158 252 283 266 295
182 277 298 47 90 80 163 222 169 113 23 51 254 297 325 63 88 99 130 153 169 189 184 185 192 196 194 196 199 185 163 163 196 174 155 168 170 144 229 273 271 286 324 312
254 280 258 278 88 39 163 150 65 6 236 258 286 277 245 223 207 177 169 174 178 191 181 183 203 201 196 198 178 150 154 168 170 172 185 186 212 244 265 287 299 305 297 301
113 139 289 2 207 205 74 282 48 120 143 185 267 263 217 227 187 185 195 191 184 191 188 190 201 190 185 180 173 199 179 167 167 183 197 226 246 255 272 279 278 274 293 304
168 157 228 231 303 112 165 211 151 138 229 226 148 268 312 241 178 170 199 191 195 199 196 194 197 182 183 194 170 202 171 170 193 196 203 234 265 267 278 274 275 274 284 290
192 237 346 331 350 2 222 192 161 123 78 193 150 262 22 142 170 197 186 188 191 203 203 212 212 214 201 202 193 186 203 205 207 203 219 252 264 267 269 274 265 274 286 304
65 72 193 244 230 233 279 263 180 141 144 190 221 267 271 228 217 175 182 198 185 198 200 209 224 223 217 213 201 191 213 220 217 221 230 250 262 263 265 264 260 273 286 288
78 257 310 278 265 235 245 267 244 200 223 186 242 213 260 227 204 193 187 176 184 201 203 212 219 221 224 206 194 198 224 222 216 237 247 253 262 267 268 249 260 274 279 276
42 284 335 294 330 3 281 278 299 244 247 254 269 277 264 314 118 143 179 184 202 210 218 213 213 202 206 203 204 214 225 232 206 235 244 252 263 266 243 245 261 273 279 283
72 15 27 272 344 328 309 343 314 310 30 305 243 310 335 81 116 139 217 189 209 221 221 190 201 204 197 207 204 218 226 224 222 234 248 253 262 255 239 247 264 267 274 281
133 115 73 285 343 45 280 309 37 290 46 10 342 19 353 116 106 73 80 213 285 143 167 194 205 207 219 214 225 237 232 232 238 249 251 250 247 249 246 252 258 267 262 273
65 110 64 53 341 295 353 4 18 16 348 360 354 24 345 40 66 348 32 164 193 190 194 200 197 201 203 218 229 222 239 237 240 250 249 249 234 247 244 248 255 259 258 276
54 73 106 349 40 328 245 230 276 324 0 333 5 116 20 44 29 304 50 83 218 216 193 195 202 202 225 243 214 217 242 227 245 248 247 247 232 234 242 245 248 247 230 260
345 6 114 132 255 292 303 314 332 69 232 256 259 246 351 18 214 268 264 221 230 237 226 224 199 219 231 240 178 235 248 245 246 248 246 243 232 233 235 246 232 239 256 268
199 132 224 100 136 348 352 334 30 259 325 329 38 214 187 198 326 296 245 254 237 243 240 253 307 306 312 13 319 279 273 295 311 280 269 270 269 246 236 223 248 238 239 261
284 185 208 179 224 242 260 226 269 214 228 350 347 266 210 261 331 329 304 299 291 301 16 52 233 282 342 329 264 281 316 323 310 271 287 272 266 243 228 228 244 241 229 236
218 164 170 14 26 319 305 93 49 24 52 18 66 69 80 12 349 345 349 336 353 24 11 24 42 48 37 29 30 17 5 346 353 354 319 300 291 286 266 240 236 252 250 243
210 137 169 259 314 300 27 31 339 59 50 63 60 49 39 47 40 43 45 42 45 45 41 38 40 43 39 35 21 12 4 356 1 358 349 344 342 319 304 272 251 228 235 230
179 182 155 197 246 191 46 13 60 70 56 46 67 54 44 48 55 55 48 49 46 41 40 44 45 41 30 26 25 16 8 1 360 352 357 354 347 349 334 327 313 254 248 252